Weather History for Sheridan, WY

Change the Weather History Date:

Thursday, January 2, 2014

  Actual Average Record
Temperature  
Mean Temperature 27 °F 23 °F  
Max Temperature 46 °F 35 °F 65 °F (1939)
Min Temperature 7 °F 10 °F -28 °F (1912)
Degree Days  
Heating Degree Days 38 42  
Month to date heating degree days 82 84  
Since 1 July heating degree days 3302 3267  
Cooling Degree Days 0 0  
Month to date cooling degree days 0 0  
Year to date cooling degree days 0 0  
Moisture  
Dew Point 13 °F    
Average Humidity 72    
Maximum Humidity 84    
Minimum Humidity 59    
Precipitation  
Precipitation 0.00 in 0.01 in 0.82 in (1972)
Month to date precipitation 0.25 0.03  
Year to date precipitation 0.25 0.03  
Sea Level Pressure  
Sea Level Pressure 30.17 in    
Wind  
Wind Speed 4 mph (SSW)    
Max Wind Speed 20 mph    
Max Gust Speed 23 mph    
Visibility 10 miles    
Events      
T = Trace of Precipitation, MM = Missing Value Source: NWS Daily Summary

Daily Weather History Graph

Daily Weather History Graph

Search for Another Location

Airport:

Trip Planner

Search our weather history database for the weather conditions in past years. The results will help you decide how hot, cold, wet, or windy it might be!

Date:

Astronomy

Jan. 02, 2014 Rise Set
Actual Time 7:45 AM MST 4:38 PM MST
Civil Twilight 7:11 AM MST 5:12 PM MST
Nautical Twilight 6:35 AM MST 5:49 PM MST
Astronomical Twilight 5:59 AM MST 6:24 PM MST
Moon 8:24 AM MST (1/2) 6:45 PM MST (1/2)
Length of Visible Light 10h 00m
Length of Day
8h 53m
Waxing Crescent, 3% of the Moon is Illuminated
Jan 2
Waxing Crescent
Jan 7
First Quarter
Jan 15
Full
Jan 23
Last Quarter
Jan 30
New

Hourly Weather History & Observations

Time (MST) Temp. Windchill Dew Point Humidity Pressure Visibility Wind Dir Wind Speed Gust Speed Precip Events Conditions
12:53 AM 10.9 °F 4.7 °F 5.0 °F 77% 30.32 in 10.0 mi SSW 3.5 mph - N/A   Clear
1:53 AM 10.9 °F 2.9 °F 5.0 °F 77% 30.33 in 10.0 mi SSW 4.6 mph - N/A   Clear
2:53 AM 12.0 °F 5.9 °F 5.0 °F 73% 30.35 in 10.0 mi ENE 3.5 mph - N/A   Clear
3:53 AM 12.0 °F 1.5 °F 5.0 °F 73% 30.34 in 10.0 mi SSW 6.9 mph - N/A   Clear
4:53 AM 9.0 °F - 3.0 °F 77% 30.34 in 10.0 mi Calm Calm - N/A   Clear
5:53 AM 14.0 °F - 5.0 °F 67% 30.33 in 10.0 mi Calm Calm - N/A   Clear
6:53 AM 10.9 °F 4.7 °F 3.9 °F 73% 30.35 in 10.0 mi South 3.5 mph - N/A   Clear
7:53 AM 14.0 °F - 6.1 °F 71% 30.30 in 10.0 mi Calm Calm - N/A   Clear
8:53 AM 17.1 °F 10.0 °F 8.1 °F 68% 30.29 in 10.0 mi NW 4.6 mph - N/A   Clear
9:53 AM 18.0 °F 8.7 °F 10.0 °F 71% 30.29 in 10.0 mi NNE 6.9 mph - N/A   Clear
10:53 AM 21.9 °F - 14.0 °F 72% 30.26 in 10.0 mi Calm Calm - N/A   Clear
11:53 AM 26.1 °F - 17.1 °F 69% 30.20 in 10.0 mi Calm Calm - N/A   Clear
12:53 PM 28.9 °F - 18.0 °F 64% 30.17 in 10.0 mi Calm Calm - N/A   Scattered Clouds
1:53 PM 28.0 °F - 18.0 °F 66% 30.15 in 10.0 mi Calm Calm - N/A   Mostly Cloudy
2:53 PM 28.0 °F 22.8 °F 19.9 °F 72% 30.11 in 10.0 mi SSE 4.6 mph - N/A   Scattered Clouds
3:53 PM 24.1 °F 17.0 °F 18.0 °F 77% 30.11 in 10.0 mi NW 5.8 mph - N/A   Clear
4:53 PM 21.0 °F 16.2 °F 16.0 °F 81% 30.11 in 10.0 mi South 3.5 mph - N/A   Clear
5:53 PM 19.9 °F 12.1 °F 16.0 °F 85% 30.09 in 10.0 mi South 5.8 mph - N/A   Clear
6:53 PM 23.0 °F 17.0 °F 15.1 °F 72% 30.07 in 10.0 mi SE 4.6 mph - N/A   Clear
7:53 PM 24.1 °F - 16.0 °F 71% 30.05 in 10.0 mi Calm Calm - N/A   Clear
8:53 PM 25.0 °F 17.1 °F 17.1 °F 72% 30.00 in 10.0 mi SSW 6.9 mph - N/A   Clear
9:53 PM 32.0 °F 24.2 °F 19.9 °F 61% 29.94 in 10.0 mi South 9.2 mph - N/A   Clear
10:53 PM 36.0 °F - 23.0 °F 59% 29.89 in 10.0 mi Calm Calm - N/A   Clear
11:53 PM 44.1 °F 38.1 °F 26.1 °F 49% 29.82 in 10.0 mi West 11.5 mph - N/A   Clear